{"data":{"norad_id":64664,"epoch":"2026-05-25T05:36:05.333184Z","epoch_age_seconds":68630,"freshness":"FRESH","line1":"1 64664U 25139A   26145.23339506  .00030994  00000+0  92463-3 0  9996","line2":"2 64664  53.1585 130.7757 0001289  86.3263 273.7887 15.34400431 52018","mean_motion":15.34400431,"eccentricity":0.0001289,"inclination_deg":53.1585,"raan_deg":130.7757,"arg_perigee_deg":86.3263,"mean_anomaly_deg":273.7887,"bstar":0.00092463,"rev_number":5201,"period_min":93.8477317203,"perigee_km":461.82017504274,"apogee_km":463.58374332641,"semimajor_km":6840.8389591846,"source":"CELESTRAK","updated_at":"2026-05-25T13:38:20.500468Z"}}